QPF
0.02 0.03 0.04 0.05 0.04 0.04 0.04 0.06 0.09 0.10 0.12 0.14 0.14 0.14 0.12 0.09 0.05 0.03 0.04 0.04 0.04 0.05 0.05 0.06 0.09 0.04 0.04 0.04 0.03 0.07 0.08 0.08 0.07 0.10 0.12 0.09 0.05 0.05 0.05 0.04 0.03 0.02 0.04
0.02 0.03 0.02 0.02 0.03 0.04 0.05 0.07 0.10 0.11 0.09 0.12 0.14 0.17 0.14 0.08 0.06 0.05 0.06 0.05 0.04 0.04 0.03 0.05 0.05 0.04 0.04 0.03 0.03 0.06 0.08 0.09 0.07 0.08 0.14 0.17 0.17 0.12 0.04 0.05 0.06 0.03 0.04
0.01 0.02 0.02 0.02 0.01 0.03 0.05 0.07 0.10 0.13 0.12 0.15 0.16 0.16 0.16 0.11 0.09 0.07 0.08 0.07 0.06 0.05 0.05 0.04 0.05 0.07 0.03 0.04 0.05 0.05 0.06 0.09 0.09 0.05 0.09 0.16 0.18 0.14 0.08 0.05 0.05 0.04 0.05
0.06 0.04 0.06 0.05 0.02 0.05 0.07 0.09 0.15 0.16 0.16 0.20 0.16 0.12 0.11 0.10 0.09 0.09 0.08 0.09 0.08 0.06 0.06 0.06 0.08 0.08 0.06 0.08 0.04 0.05 0.06 0.07 0.08 0.06 0.03 0.04 0.08 0.11 0.15 0.11 0.06 0.06 0.05
0.02 0.02 0.07 0.10 0.03 0.04 0.12 0.19 0.17 0.18 0.20 0.16 0.12 0.10 0.10 0.12 0.10 0.09 0.11 0.10 0.09 0.07 0.06 0.07 0.09 0.08 0.06 0.08 0.06 0.09 0.07 0.07 0.06 0.04 0.03 0.04 0.04 0.04 0.07 0.13 0.12 0.09 0.05
0.00 0.00 0.01 0.01 0.01 0.03 0.08 0.11 0.09 0.09 0.11 0.12 0.12 0.10 0.11 0.14 0.12 0.10 0.09 0.08 0.08 0.08 0.07 0.07 0.08 0.07 0.07 0.08 0.07 0.07 0.07 0.08 0.09 0.06 0.04 0.03 0.03 0.02 0.03 0.06 0.08 0.09 0.07
0.00 0.00 0.01 0.01 0.01 0.02 0.03 0.05 0.07 0.09 0.10 0.12 0.11 0.09 0.09 0.12 0.11 0.10 0.11 0.10 0.08 0.07 0.07 0.07 0.08 0.07 0.08 0.07 0.08 0.07 0.08 0.08 0.08 0.06 0.04 0.03 0.02 0.02 0.01 0.02 0.04 0.06 0.07
0.00 0.02 0.01 0.01 0.01 0.02 0.03 0.05 0.08 0.10 0.09 0.09 0.10 0.10 0.07 0.07 0.09 0.11 0.10 0.09 0.08 0.07 0.07 0.08 0.07 0.07 0.07 0.06 0.09 0.06 0.05 0.08 0.07 0.05 0.05 0.03 0.01 0.01 0.02 0.02 0.03 0.07 0.09
0.02 0.03 0.06 0.05 0.01 0.01 0.02 0.03 0.05 0.06 0.09 0.11 0.12 0.10 0.08 0.08 0.11 0.13 0.12 0.11 0.11 0.10 0.09 0.08 0.07 0.07 0.06 0.06 0.08 0.07 0.07 0.09 0.08 0.05 0.05 0.03 0.02 0.02 0.02 0.02 0.03 0.06 0.10
0.03 0.01 0.03 0.08 0.03 0.01 0.01 0.02 0.03 0.04 0.08 0.11 0.10 0.06 0.08 0.08 0.11 0.12 0.11 0.10 0.10 0.10 0.10 0.09 0.08 0.07 0.07 0.07 0.07 0.08 0.09 0.09 0.08 0.07 0.07 0.04 0.03 0.04 0.03 0.03 0.02 0.03 0.07
0.01 0.00 0.00 0.01 0.01 0.00 0.01 0.02 0.03 0.05 0.07 0.08 0.08 0.08 0.07 0.07 0.08 0.10 0.12 0.13 0.13 0.11 0.10 0.10 0.11 0.10 0.09 0.09 0.09 0.10 0.10 0.10 0.10 0.08 0.08 0.07 0.06 0.06 0.04 0.03 0.02 0.02 0.04
0.00 0.00 0.00 0.00 0.00 0.00 0.01 0.01 0.02 0.03 0.05 0.07 0.08 0.09 0.09 0.09 0.09 0.09 0.12 0.15 0.15 0.14 0.13 0.12 0.12 0.11 0.10 0.11 0.11 0.10 0.10 0.10 0.11 0.11 0.11 0.10 0.07 0.07 0.05 0.04 0.04 0.04 0.04
0.00 0.00 0.00 0.00 0.00 0.00 0.01 0.01 0.01 0.02 0.04 0.06 0.06 0.06 0.07 0.09 0.10 0.12 0.14 0.18 0.19 0.20 0.17 0.16 0.14 0.13 0.13 0.14 0.14 0.11 0.10 0.10 0.10 0.10 0.09 0.08 0.08 0.08 0.07 0.08 0.06 0.05 0.05
0.00 0.00 0.00 0.01 0.01 0.01 0.01 0.01 0.01 0.02 0.03 0.04 0.04 0.05 0.07 0.09 0.10 0.11 0.14 0.16 0.19 0.21 0.20 0.16 0.14 0.14 0.13 0.13 0.12 0.11 0.10 0.09 0.08 0.06 0.05 0.05 0.05 0.07 0.07 0.07 0.08 0.06 0.05
0.01 0.01 0.01 0.02 0.03 0.02 0.01 0.02 0.02 0.01 0.02 0.03 0.04 0.06 0.07 0.08 0.08 0.09 0.10 0.12 0.13 0.15 0.17 0.15 0.13 0.12 0.12 0.11 0.11 0.10 0.09 0.09 0.08 0.06 0.04 0.03 0.03 0.04 0.04 0.04 0.04 0.04 0.03
0.01 0.01 0.01 0.02 0.03 0.03 0.02 0.02 0.02 0.01 0.02 0.04 0.06 0.09 0.09 0.08 0.07 0.07 0.09 0.09 0.11 0.12 0.13 0.11 0.10 0.09 0.08 0.11 0.13 0.11 0.10 0.09 0.08 0.07 0.07 0.05 0.04 0.03 0.03 0.02 0.02 0.02 0.02
0.01 0.01 0.02 0.02 0.02 0.02 0.01 0.01 0.02 0.03 0.03 0.04 0.06 0.07 0.08 0.08 0.08 0.08 0.08 0.08 0.08 0.09 0.10 0.09 0.09 0.11 0.12 0.13 0.12 0.11 0.10 0.10 0.09 0.09 0.08 0.07 0.06 0.05 0.03 0.03 0.02 0.01 0.01
0.00 0.01 0.01 0.01 0.01 0.01 0.01 0.01 0.02 0.03 0.04 0.05 0.06 0.06 0.07 0.07 0.07 0.08 0.08 0.08 0.08 0.08 0.08 0.08 0.08 0.09 0.12 0.14 0.13 0.12 0.10 0.09 0.08 0.07 0.07 0.07 0.06 0.05 0.03 0.02 0.02 0.02 0.02
0.01 0.01 0.02 0.01 0.01 0.02 0.02 0.02 0.02 0.04 0.04 0.05 0.05 0.06 0.06 0.07 0.07 0.08 0.08 0.09 0.09 0.08 0.07 0.07 0.08 0.08 0.09 0.11 0.12 0.11 0.11 0.09 0.07 0.06 0.05 0.04 0.03 0.03 0.02 0.02 0.01 0.01 0.01
0.01 0.01 0.01 0.01 0.01 0.01 0.02 0.02 0.02 0.03 0.04 0.06 0.07 0.08 0.07 0.06 0.07 0.09 0.13 0.16 0.16 0.15 0.14 0.12 0.12 0.12 0.12 0.13 0.11 0.11 0.10 0.09 0.08 0.06 0.05 0.04 0.02 0.01 0.01 0.01 0.01 0.01 0.01
0.00 0.00 0.01 0.01 0.01 0.01 0.02 0.03 0.03 0.03 0.04 0.06 0.07 0.08 0.08 0.07 0.07 0.09 0.10 0.14 0.16 0.17 0.17 0.14 0.14 0.14 0.13 0.13 0.11 0.09 0.07 0.07 0.06 0.05 0.05 0.04 0.03 0.02 0.02 0.02 0.02 0.02 0.02
0.00 0.00 0.00 0.01 0.01 0.01 0.02 0.02 0.02 0.05 0.07 0.08 0.08 0.10 0.09 0.06 0.06 0.06 0.08 0.12 0.13 0.14 0.15 0.14 0.14 0.13 0.11 0.11 0.11 0.10 0.09 0.08 0.06 0.05 0.05 0.05 0.06 0.05 0.05 0.04 0.03 0.02 0.02
0.00 0.01 0.01 0.01 0.01 0.02 0.02 0.03 0.03 0.04 0.05 0.06 0.08 0.09 0.10 0.08 0.06 0.04 0.06 0.08 0.11 0.13 0.14 0.13 0.11 0.09 0.07 0.08 0.08 0.07 0.06 0.05 0.04 0.04 0.06 0.06 0.06 0.06 0.05 0.05 0.04 0.03 0.02
0.01 0.01 0.01 0.01 0.01 0.02 0.02 0.02 0.04 0.05 0.05 0.06 0.05 0.05 0.05 0.05 0.05 0.05 0.06 0.07 0.09 0.10 0.10 0.10 0.10 0.09 0.08 0.07 0.06 0.06 0.06 0.07 0.07 0.07 0.09 0.10 0.10 0.09 0.08 0.07 0.06 0.04 0.03
0.01 0.02 0.02 0.02 0.01 0.02 0.03 0.03 0.03 0.03 0.05 0.05 0.05 0.05 0.04 0.04 0.04 0.05 0.07 0.08 0.09 0.10 0.10 0.10 0.09 0.09 0.09 0.08 0.08 0.07 0.07 0.08 0.09 0.10 0.13 0.15 0.14 0.12 0.10 0.09 0.08 0.06 0.05
0.01 0.01 0.01 0.02 0.02 0.03 0.04 0.04 0.04 0.04 0.04 0.04 0.04 0.05 0.05 0.05 0.05 0.06 0.09 0.12 0.11 0.12 0.12 0.11 0.10 0.08 0.08 0.08 0.07 0.06 0.06 0.08 0.09 0.09 0.10 0.11 0.11 0.10 0.09 0.07 0.06 0.05 0.04
MSLP
1006.69 1007.38 1008.04 1008.65 1009.21 1009.73 1010.23 1010.74 1011.26 1011.78 1012.27 1012.71 1013.07 1013.34 1013.52 1013.63 1013.71 1013.81 1013.97 1014.22 1014.56 1014.98 1015.45 1015.93 1016.39 1016.79 1017.12 1017.39 1017.63 1017.84 1018.07 1018.33 1018.61 1018.90 1019.17 1019.39 1019.55 1019.62 1019.62 1019.57 1019.50 1019.47 1019.50
1006.82 1007.55 1008.23 1008.84 1009.37 1009.85 1010.33 1010.82 1011.35 1011.91 1012.46 1012.96 1013.37 1013.67 1013.84 1013.92 1013.92 1013.93 1013.99 1014.15 1014.43 1014.82 1015.29 1015.80 1016.30 1016.75 1017.13 1017.44 1017.69 1017.92 1018.16 1018.41 1018.70 1019.01 1019.30 1019.55 1019.73 1019.82 1019.81 1019.73 1019.61 1019.50 1019.43
1006.90 1007.65 1008.34 1008.94 1009.44 1009.89 1010.32 1010.79 1011.32 1011.90 1012.49 1013.05 1013.52 1013.86 1014.06 1014.13 1014.10 1014.06 1014.06 1014.15 1014.38 1014.73 1015.19 1015.71 1016.23 1016.71 1017.12 1017.45 1017.71 1017.94 1018.16 1018.42 1018.71 1019.04 1019.36 1019.66 1019.89 1020.02 1020.04 1019.96 1019.81 1019.64 1019.49
1006.87 1007.64 1008.33 1008.92 1009.39 1009.80 1010.20 1010.64 1011.15 1011.73 1012.35 1012.96 1013.48 1013.88 1014.12 1014.22 1014.20 1014.15 1014.12 1014.19 1014.38 1014.71 1015.15 1015.67 1016.19 1016.67 1017.08 1017.40 1017.65 1017.87 1018.09 1018.34 1018.64 1018.98 1019.35 1019.69 1019.97 1020.16 1020.22 1020.17 1020.02 1019.82 1019.62
1006.70 1007.48 1008.19 1008.77 1009.23 1009.61 1009.97 1010.37 1010.86 1011.43 1012.06 1012.69 1013.26 1013.71 1014.02 1014.16 1014.19 1014.17 1014.16 1014.22 1014.41 1014.72 1015.14 1015.64 1016.14 1016.60 1016.99 1017.30 1017.53 1017.72 1017.92 1018.17 1018.47 1018.83 1019.22 1019.61 1019.95 1020.19 1020.30 1020.29 1020.16 1019.97 1019.73
1006.41 1007.21 1007.92 1008.52 1008.98 1009.35 1009.68 1010.05 1010.51 1011.05 1011.67 1012.31 1012.91 1013.40 1013.76 1013.98 1014.07 1014.10 1014.14 1014.23 1014.42 1014.72 1015.13 1015.59 1016.06 1016.49 1016.84 1017.12 1017.33 1017.50 1017.69 1017.92 1018.22 1018.58 1019.00 1019.41 1019.78 1020.07 1020.23 1020.26 1020.17 1020.00 1019.77
1006.05 1006.85 1007.59 1008.21 1008.69 1009.06 1009.39 1009.74 1010.16 1010.66 1011.25 1011.87 1012.47 1013.00 1013.41 1013.68 1013.85 1013.95 1014.04 1014.17 1014.38 1014.68 1015.06 1015.49 1015.92 1016.31 1016.63 1016.87 1017.06 1017.22 1017.40 1017.62 1017.92 1018.28 1018.69 1019.11 1019.49 1019.80 1019.99 1020.06 1020.02 1019.89 1019.70
1005.69 1006.50 1007.26 1007.90 1008.41 1008.80 1009.14 1009.47 1009.85 1010.32 1010.86 1011.45 1012.03 1012.55 1012.99 1013.31 1013.54 1013.71 1013.86 1014.03 1014.26 1014.56 1014.92 1015.31 1015.70 1016.05 1016.34 1016.57 1016.75 1016.91 1017.09 1017.32 1017.61 1017.96 1018.36 1018.76 1019.14 1019.44 1019.65 1019.74 1019.74 1019.67 1019.55
1005.41 1006.21 1006.98 1007.65 1008.19 1008.61 1008.95 1009.28 1009.63 1010.05 1010.54 1011.07 1011.60 1012.11 1012.55 1012.90 1013.18 1013.39 1013.59 1013.80 1014.05 1014.35 1014.69 1015.05 1015.41 1015.73 1016.01 1016.24 1016.44 1016.62 1016.82 1017.07 1017.37 1017.72 1018.09 1018.47 1018.81 1019.09 1019.29 1019.40 1019.44 1019.43 1019.39
1005.26 1006.04 1006.80 1007.48 1008.04 1008.48 1008.84 1009.16 1009.49 1009.86 1010.29 1010.75 1011.23 1011.70 1012.12 1012.47 1012.77 1013.02 1013.26 1013.50 1013.76 1014.06 1014.39 1014.73 1015.06 1015.38 1015.67 1015.92 1016.16 1016.40 1016.65 1016.94 1017.26 1017.61 1017.97 1018.32 1018.62 1018.87 1019.04 1019.16 1019.23 1019.28 1019.32
1005.29 1006.01 1006.74 1007.39 1007.95 1008.39 1008.76 1009.07 1009.38 1009.72 1010.09 1010.49 1010.91 1011.32 1011.70 1012.04 1012.34 1012.62 1012.87 1013.13 1013.41 1013.71 1014.04 1014.37 1014.71 1015.04 1015.36 1015.67 1015.98 1016.29 1016.63 1016.98 1017.36 1017.73 1018.08 1018.40 1018.67 1018.88 1019.04 1019.15 1019.24 1019.34 1019.46
1005.45 1006.10 1006.75 1007.35 1007.88 1008.31 1008.67 1008.99 1009.28 1009.58 1009.91 1010.25 1010.61 1010.97 1011.31 1011.63 1011.93 1012.21 1012.48 1012.76 1013.06 1013.37 1013.70 1014.04 1014.40 1014.76 1015.14 1015.52 1015.92 1016.34 1016.77 1017.22 1017.66 1018.07 1018.45 1018.76 1019.01 1019.20 1019.33 1019.44 1019.55 1019.68 1019.85
1005.70 1006.24 1006.80 1007.33 1007.80 1008.20 1008.55 1008.85 1009.14 1009.42 1009.72 1010.02 1010.34 1010.65 1010.96 1011.26 1011.56 1011.84 1012.13 1012.43 1012.74 1013.07 1013.42 1013.79 1014.18 1014.60 1015.04 1015.50 1016.00 1016.53 1017.08 1017.62 1018.15 1018.63 1019.04 1019.37 1019.62 1019.79 1019.91 1020.02 1020.13 1020.29 1020.50
1005.96 1006.39 1006.83 1007.27 1007.67 1008.04 1008.37 1008.67 1008.95 1009.24 1009.52 1009.80 1010.10 1010.39 1010.68 1010.97 1011.27 1011.57 1011.87 1012.20 1012.53 1012.89 1013.27 1013.68 1014.11 1014.57 1015.08 1015.64 1016.23 1016.86 1017.51 1018.16 1018.77 1019.32 1019.78 1020.14 1020.41 1020.59 1020.71 1020.82 1020.94 1021.11 1021.33
1006.17 1006.49 1006.83 1007.18 1007.51 1007.84 1008.15 1008.45 1008.75 1009.05 1009.34 1009.63 1009.92 1010.21 1010.50 1010.80 1011.10 1011.42 1011.75 1012.11 1012.48 1012.87 1013.28 1013.73 1014.20 1014.72 1015.29 1015.91 1016.58 1017.29 1018.03 1018.76 1019.45 1020.06 1020.57 1020.98 1021.27 1021.47 1021.61 1021.72 1021.85 1022.01 1022.24
1006.30 1006.54 1006.80 1007.06 1007.34 1007.64 1007.94 1008.26 1008.58 1008.91 1009.23 1009.54 1009.85 1010.15 1010.46 1010.77 1011.09 1011.44 1011.81 1012.20 1012.61 1013.04 1013.49 1013.97 1014.48 1015.04 1015.65 1016.31 1017.04 1017.80 1018.59 1019.37 1020.11 1020.77 1021.33 1021.77 1022.09 1022.32 1022.48 1022.60 1022.73 1022.89 1023.10
1006.36 1006.56 1006.76 1006.97 1007.22 1007.50 1007.81 1008.15 1008.50 1008.86 1009.22 1009.57 1009.91 1010.24 1010.57 1010.91 1011.27 1011.65 1012.05 1012.48 1012.93 1013.40 1013.89 1014.40 1014.94 1015.52 1016.15 1016.84 1017.57 1018.35 1019.16 1019.95 1020.71 1021.39 1021.97 1022.44 1022.79 1023.04 1023.21 1023.35 1023.48 1023.64 1023.83
1006.41 1006.59 1006.77 1006.97 1007.20 1007.48 1007.80 1008.16 1008.55 1008.95 1009.35 1009.74 1010.12 1010.48 1010.85 1011.22 1011.62 1012.03 1012.48 1012.94 1013.43 1013.94 1014.47 1015.01 1015.57 1016.16 1016.79 1017.47 1018.19 1018.95 1019.73 1020.51 1021.24 1021.91 1022.49 1022.96 1023.32 1023.59 1023.78 1023.92 1024.05 1024.20 1024.37
1006.51 1006.70 1006.89 1007.09 1007.33 1007.61 1007.95 1008.33 1008.74 1009.17 1009.60 1010.03 1010.44 1010.84 1011.25 1011.66 1012.09 1012.55 1013.03 1013.54 1014.08 1014.62 1015.18 1015.75 1016.33 1016.92 1017.54 1018.20 1018.88 1019.60 1020.33 1021.05 1021.73 1022.36 1022.91 1023.37 1023.72 1023.99 1024.18 1024.33 1024.46 1024.60 1024.75
1006.72 1006.95 1007.16 1007.37 1007.61 1007.90 1008.23 1008.62 1009.04 1009.48 1009.93 1010.38 1010.82 1011.26 1011.70 1012.16 1012.63 1013.13 1013.66 1014.22 1014.80 1015.39 1015.98 1016.58 1017.18 1017.78 1018.39 1019.01 1019.65 1020.30 1020.96 1021.61 1022.23 1022.80 1023.30 1023.71 1024.05 1024.30 1024.49 1024.64 1024.76 1024.88 1025.02
1007.10 1007.36 1007.58 1007.80 1008.03 1008.30 1008.62 1008.99 1009.39 1009.83 1010.28 1010.74 1011.21 1011.68 1012.16 1012.65 1013.17 1013.72 1014.31 1014.92 1015.55 1016.18 1016.82 1017.45 1018.08 1018.68 1019.29 1019.88 1020.48 1021.07 1021.66 1022.23 1022.77 1023.26 1023.69 1024.06 1024.36 1024.59 1024.77 1024.91 1025.02 1025.13 1025.24
1007.63 1007.91 1008.14 1008.34 1008.55 1008.78 1009.06 1009.38 1009.75 1010.16 1010.60 1011.06 1011.54 1012.04 1012.55 1013.10 1013.67 1014.28 1014.92 1015.59 1016.28 1016.97 1017.66 1018.33 1018.98 1019.61 1020.21 1020.79 1021.34 1021.88 1022.40 1022.89 1023.34 1023.76 1024.12 1024.44 1024.69 1024.90 1025.06 1025.18 1025.29 1025.39 1025.48
1008.31 1008.58 1008.79 1008.96 1009.12 1009.29 1009.50 1009.76 1010.07 1010.44 1010.85 1011.31 1011.80 1012.33 1012.89 1013.49 1014.12 1014.80 1015.50 1016.23 1016.98 1017.72 1018.46 1019.18 1019.86 1020.51 1021.11 1021.67 1022.20 1022.69 1023.14 1023.56 1023.94 1024.28 1024.58 1024.83 1025.05 1025.22 1025.36 1025.48 1025.58 1025.67 1025.75
1009.07 1009.32 1009.49 1009.60 1009.70 1009.80 1009.94 1010.12 1010.38 1010.70 1011.08 1011.53 1012.04 1012.59 1013.20 1013.85 1014.55 1015.28 1016.05 1016.84 1017.64 1018.44 1019.22 1019.97 1020.68 1021.34 1021.95 1022.49 1022.99 1023.43 1023.83 1024.18 1024.49 1024.76 1025.00 1025.20 1025.38 1025.53 1025.65 1025.76 1025.86 1025.95 1026.02
1009.87 1010.08 1010.20 1010.26 1010.29 1010.32 1010.39 1010.51 1010.70 1010.98 1011.34 1011.78 1012.30 1012.89 1013.54 1014.25 1015.00 1015.79 1016.61 1017.45 1018.29 1019.13 1019.93 1020.70 1021.42 1022.08 1022.67 1023.20 1023.66 1024.06 1024.40 1024.69 1024.93 1025.14 1025.32 1025.48 1025.62 1025.75 1025.87 1025.98 1026.08 1026.17 1026.26
1010.66 1010.83 1010.91 1010.93 1010.91 1010.89 1010.90 1010.97 1011.12 1011.37 1011.71 1012.15 1012.68 1013.30 1013.99 1014.73 1015.53 1016.37 1017.22 1018.09 1018.95 1019.79 1020.60 1021.36 1022.06 1022.69 1023.26 1023.74 1024.16 1024.51 1024.79 1025.01 1025.20 1025.36 1025.49 1025.61 1025.72 1025.84 1025.95 1026.07 1026.19 1026.30 1026.40
Thickness
5815 5810 5803 5797 5791 5784 5778 5773 5767 5764 5760 5755 5752 5750 5750 5753 5756 5757 5757 5756 5756 5755 5754 5755 5755 5755 5753 5752 5751 5749 5747 5746 5747 5742 5740 5743 5746 5745 5745 5744 5744 5742 5739
5811 5805 5801 5796 5789 5783 5778 5773 5767 5763 5759 5756 5753 5751 5750 5752 5754 5756 5756 5755 5755 5754 5754 5753 5754 5754 5752 5751 5750 5748 5745 5745 5746 5741 5734 5730 5734 5740 5747 5745 5744 5743 5741
5809 5802 5798 5794 5789 5783 5778 5774 5768 5763 5759 5756 5752 5750 5748 5749 5750 5752 5753 5754 5754 5754 5754 5753 5753 5753 5751 5749 5748 5747 5744 5741 5744 5745 5737 5729 5725 5731 5740 5744 5745 5744 5742
5809 5803 5797 5793 5789 5785 5781 5775 5769 5764 5759 5756 5752 5748 5746 5744 5748 5750 5752 5752 5752 5753 5753 5752 5751 5751 5751 5748 5748 5748 5746 5743 5739 5742 5744 5742 5738 5730 5729 5737 5743 5744 5742
5813 5805 5800 5794 5791 5788 5782 5777 5770 5764 5760 5757 5754 5750 5749 5748 5749 5751 5750 5750 5751 5751 5752 5751 5750 5749 5749 5749 5748 5747 5746 5744 5741 5740 5741 5742 5741 5740 5731 5727 5733 5738 5741
5816 5808 5803 5798 5792 5789 5784 5778 5770 5764 5761 5757 5755 5752 5750 5749 5748 5748 5747 5748 5749 5750 5751 5750 5749 5748 5748 5748 5747 5746 5744 5743 5742 5742 5741 5740 5738 5737 5736 5731 5730 5730 5736
5816 5808 5801 5796 5791 5787 5783 5777 5770 5764 5761 5758 5755 5753 5752 5750 5748 5748 5747 5747 5748 5748 5749 5751 5748 5747 5747 5747 5746 5744 5743 5742 5740 5740 5740 5742 5742 5743 5740 5734 5730 5729 5732
5815 5807 5802 5796 5791 5787 5782 5777 5770 5765 5762 5759 5756 5755 5754 5752 5751 5750 5749 5749 5749 5750 5750 5749 5747 5746 5746 5745 5743 5743 5742 5741 5740 5740 5739 5739 5741 5742 5740 5735 5730 5723 5723
5813 5806 5802 5796 5791 5787 5782 5778 5771 5766 5763 5760 5758 5756 5755 5754 5753 5752 5751 5750 5750 5750 5749 5748 5746 5745 5744 5743 5741 5740 5739 5738 5737 5737 5736 5735 5738 5739 5738 5736 5733 5723 5713
5812 5807 5801 5795 5791 5789 5783 5779 5773 5767 5764 5762 5759 5757 5755 5754 5753 5752 5750 5750 5750 5749 5747 5746 5744 5743 5741 5740 5738 5737 5736 5734 5734 5733 5732 5731 5732 5733 5732 5731 5729 5725 5717
5812 5807 5802 5797 5793 5789 5783 5778 5772 5768 5764 5762 5759 5756 5754 5754 5752 5751 5750 5749 5748 5747 5745 5743 5741 5739 5737 5736 5734 5733 5732 5730 5729 5729 5727 5725 5724 5723 5723 5723 5721 5717 5714
5813 5807 5801 5795 5790 5786 5782 5777 5772 5768 5764 5762 5758 5755 5753 5752 5750 5748 5747 5747 5745 5743 5742 5740 5737 5735 5733 5731 5730 5728 5727 5725 5722 5722 5721 5719 5718 5716 5714 5713 5711 5709 5707
5809 5804 5797 5792 5788 5784 5780 5776 5772 5768 5765 5762 5758 5754 5751 5749 5746 5745 5744 5743 5741 5739 5737 5735 5733 5731 5729 5727 5725 5723 5722 5719 5717 5715 5712 5711 5709 5706 5705 5703 5701 5700 5699
5802 5798 5791 5787 5784 5781 5777 5773 5769 5767 5763 5760 5755 5751 5749 5746 5744 5742 5741 5739 5736 5734 5732 5731 5729 5727 5724 5722 5720 5717 5714 5710 5708 5706 5703 5701 5699 5697 5695 5693 5690 5689 5687
5796 5791 5785 5782 5779 5776 5773 5770 5766 5764 5761 5756 5751 5748 5745 5743 5740 5738 5736 5734 5732 5730 5727 5725 5723 5721 5719 5717 5714 5709 5705 5701 5697 5694 5692 5689 5687 5686 5684 5682 5679 5677 5674
5792 5789 5784 5779 5774 5770 5768 5765 5762 5759 5756 5751 5747 5744 5741 5738 5735 5733 5731 5728 5726 5724 5721 5718 5715 5713 5711 5710 5707 5703 5698 5693 5688 5684 5680 5678 5676 5673 5671 5669 5667 5665 5662
5789 5784 5779 5775 5771 5767 5764 5760 5757 5755 5751 5747 5743 5739 5736 5732 5729 5727 5724 5721 5719 5717 5713 5710 5707 5703 5701 5700 5697 5694 5689 5684 5680 5676 5672 5670 5665 5662 5660 5657 5655 5652 5649
5784 5780 5776 5772 5768 5765 5761 5757 5754 5749 5745 5741 5738 5734 5730 5726 5723 5720 5717 5714 5712 5708 5705 5701 5698 5694 5690 5689 5687 5683 5679 5674 5670 5666 5662 5659 5654 5652 5651 5647 5642 5638 5635
5780 5776 5773 5769 5764 5760 5756 5752 5747 5743 5739 5735 5731 5728 5724 5720 5716 5712 5710 5707 5704 5700 5696 5692 5688 5685 5680 5678 5677 5674 5669 5663 5658 5654 5650 5647 5644 5642 5640 5637 5631 5626 5621
5772 5769 5766 5762 5756 5753 5751 5745 5740 5735 5731 5728 5725 5722 5717 5713 5709 5705 5703 5700 5696 5692 5687 5682 5679 5675 5671 5668 5666 5664 5659 5653 5646 5641 5638 5635 5633 5631 5630 5626 5622 5616 5611
5762 5760 5756 5751 5747 5746 5742 5736 5731 5727 5725 5722 5718 5714 5709 5706 5702 5698 5695 5691 5686 5682 5677 5672 5668 5664 5660 5657 5655 5653 5649 5644 5638 5633 5628 5623 5621 5619 5617 5614 5609 5604 5600
5750 5748 5744 5740 5738 5737 5733 5727 5723 5721 5718 5715 5710 5706 5702 5699 5694 5690 5686 5682 5677 5671 5666 5662 5656 5651 5648 5646 5643 5641 5639 5634 5629 5622 5617 5611 5609 5607 5604 5600 5597 5593 5590
5738 5737 5733 5729 5727 5725 5723 5717 5714 5713 5710 5705 5701 5696 5692 5688 5684 5680 5676 5672 5668 5663 5658 5653 5647 5640 5636 5632 5631 5629 5626 5622 5617 5611 5605 5601 5597 5593 5591 5587 5584 5581 5579
5727 5726 5722 5717 5714 5713 5711 5708 5706 5704 5701 5696 5691 5686 5681 5676 5672 5669 5666 5662 5658 5654 5650 5645 5639 5632 5627 5623 5619 5615 5612 5608 5603 5598 5593 5589 5585 5581 5577 5575 5571 5568 5566
5714 5712 5708 5704 5701 5701 5699 5698 5696 5694 5690 5685 5681 5676 5670 5666 5659 5654 5650 5649 5645 5644 5642 5637 5632 5626 5618 5612 5610 5607 5602 5598 5593 5587 5583 5579 5575 5572 5569 5565 5562 5558 5554
5700 5697 5694 5692 5689 5688 5686 5685 5685 5683 5679 5674 5670 5665 5660 5654 5648 5642 5634 5629 5629 5628 5627 5624 5619 5613 5608 5602 5599 5595 5591 5586 5582 5579 5576 5573 5570 5566 5561 5557 5552 5547 5542